COSMOS 252 DEB *, 3690

Orbit data source: Space-Track

COSMOS 252 DEB *, 3690 is space debris in LEO originally from a launch on Fri, 01 Nov 1968 UTC launched from the Tyuratam Missile And Space Complex (TTMTR). Debris objects in space refer to the collection of defunct objects orbiting the Earth. Examples of debris include non-operational satellites, rocket bodies, and fragments generated from explosions, collisions, or faulty payload assembly.

Loading next visibility...
Identifier
3690, 1968-097AH
Orbit
LEO
Country
Flag of CISCIS
Related business
Manufacturer
Unknown
Mission
Spacecraft
Bus & Motor
Unknown
Mass
Unknown
Launch date (UTC)
1968-11-01 (57 years ago)
Launch vehicle
Unknown
Launch site
Tyuratam Missile And Space Complex (TTMTR)
Object type
Payload
Rocket body
Debris
Shape & HBR
Unknown
Radar Cross Section
Small (<0.1 m²)

Expand to show TLE details & history
Last TLE update: 14 hours ago

TLE from 14 hours ago
0 COSMOS 252 DEB *
1 03690U 68097AH  25257.51710795  .00000615  00000-0  67536-3 0  9996
2 03690  62.3486 341.0503 0777552 200.4857 156.3290 12.90339748636595
Epoch: 2025-09-14T12:24Z
TLE epoch observation values (Epoch: 2025-09-14T12:24:38.126Z)
Latitude
-0.00002°
Longitude
161.15645°
Altitude
1,855.384 km
Speed
6.704 km/s
True Right ascension
22h 44m 12s
True Declination
0° 00' 00"
Sunlit
Object was in full shadow at epoch
Visualization orbit readout
Latitude
Unknown
Longitude
Unknown
Altitude
Unknown
Speed
Unknown
Apparent Right ascension
Unknown
Apparent Declination
Unknown
Sunlit
N/A
Visualization observer readout
Local Sidereal Time
18:41:33
Azimuth
Unknown
Elevation
Unknown
Doppler factor
Unknown
Orbital elements
Apogee altitude
1,896.106 km
Perigee altitude
702.207 km
Semi-major axis
7,677.293 km
Eccentricity
0.07776
Inclination
62.3486°
RAAN
341.0503°
Arg. of periapsis
200.4857°
True anomaly
159.61124°
Mean anomaly
156.329°
Eccentric anomaly
157.99803°
Mean motion
3.22649 °/min
Orbital period
111.58 mins
BSTAR
0.00067536
Loading maneuver chart data...
Computing Atmospheric mass density...

Documentation

Showing up to 5 results
|